When you browse on this site, cookies collect data to enhance your experience and personalize the content and advertising you see.
Visit our Privacy Policy to learn more. By continuing to use the site, you agree to this use of cookies and data.
  • In Romania
  • List of Countries
  • For 7 days
  • Water Temperature
  • Satellite Maps
  • Weather Map
  • Weather Widgets
  • user-avatar
    Login

    Hourly Weather Algiers

    Today, 22 January, Tuesday

    Time Temperature Precipitation Wind Pressure Humidity
    00:00 +8°C° 0.5 mm 3 mps 750 mmHg 80%
    01:00 +8°C° 0.4 mm 3 mps 750 mmHg 78%
    02:00 +7°C° 0.4 mm 4 mps 749 mmHg 77%
    03:00 +7°C° 0.4 mm 4 mps 749 mmHg 76%
    04:00 +7°C° 0.3 mm 4 mps 749 mmHg 75%
    05:00 +7°C° 0.3 mm 4 mps 749 mmHg 74%
    06:00 +7°C° 0.3 mm 4 mps 749 mmHg 73%
    07:00 +7°C° 0.2 mm 5 mps 749 mmHg 70%
    08:00 +8°C° 0.2 mm 5 mps 749 mmHg 66%
    09:00 +9°C° 0.2 mm 5 mps 749 mmHg 63%
    10:00 +9°C° 0.1 mm 6 mps 749 mmHg 59%
    11:00 +10°C° 0.1 mm 6 mps 748 mmHg 56%
    12:00 +11°C° 0.1 mm 6 mps 748 mmHg 52%
    13:00 +11°C° 0.3 mm 7 mps 747 mmHg 56%
    14:00 +10°C° 0.3 mm 7 mps 747 mmHg 59%
    15:00 +10°C° 0.3 mm 7 mps 746 mmHg 63%
    16:00 +10°C° 0.1 mm 7 mps 746 mmHg 61%
    17:00 +9°C° 0.1 mm 7 mps 746 mmHg 60%
    18:00 +9°C° 0.1 mm 7 mps 746 mmHg 59%
    19:00 +9°C° 0.2 mm 7 mps 746 mmHg 60%
    20:00 +9°C° 0.2 mm 7 mps 746 mmHg 62%
    21:00 +9°C° 0.2 mm 6 mps 745 mmHg 63%
    22:00 +9°C° 0.4 mm 7 mps 745 mmHg 65%
    23:00 +9°C° 0.4 mm 7 mps 745 mmHg 67%

    Tomorrow, 23 January, Wednesday

    Time Temperature Precipitation Wind Pressure Humidity
    00:00 +9°C° 0.4 mm 7 mps 744 mmHg 68%
    01:00 +9°C° 1 mm 7 mps 744 mmHg 73%
    02:00 +8°C° 1 mm 7 mps 743 mmHg 78%
    03:00 +8°C° 1 mm 7 mps 743 mmHg 83%
    04:00 +8°C° 1.4 mm 7 mps 743 mmHg 79%
    05:00 +9°C° 1.4 mm 7 mps 742 mmHg 75%
    06:00 +9°C° 1.4 mm 7 mps 742 mmHg 71%
    07:00 +9°C° 0.6 mm 8 mps 743 mmHg 69%
    08:00 +10°C° 0.6 mm 8 mps 743 mmHg 66%
    09:00 +10°C° 0.6 mm 8 mps 743 mmHg 64%
    10:00 +11°C° 0.1 mm 9 mps 743 mmHg 61%
    11:00 +11°C° 0.1 mm 11 mps 742 mmHg 59%
    12:00 +12°C° 0.1 mm 12 mps 742 mmHg 57%
    13:00 +12°C° 0.6 mm 12 mps 741 mmHg 61%
    14:00 +10°C° 0.6 mm 13 mps 740 mmHg 65%
    15:00 +10°C° 0.6 mm 14 mps 739 mmHg 69%
    16:00 +10°C° 0.5 mm 14 mps 739 mmHg 69%
    17:00 +10°C° 0.5 mm 14 mps 740 mmHg 68%
    18:00 +10°C° 0.5 mm 14 mps 740 mmHg 68%
    19:00 +10°C° 2.3 mm 13 mps 740 mmHg 70%
    20:00 +10°C° 2.3 mm 12 mps 739 mmHg 72%
    21:00 +10°C° 2.3 mm 12 mps 739 mmHg 75%
    22:00 +10°C° 1.3 mm 12 mps 739 mmHg 73%
    23:00 +10°C° 1.3 mm 13 mps 739 mmHg 72%

    Day after tomorrow, 24 January, Thursday

    Time Temperature Precipitation Wind Pressure Humidity
    00:00 +10°C° 1.3 mm 13 mps 738 mmHg 70%
    01:00 +10°C° 0.5 mm 14 mps 738 mmHg 65%
    02:00 +9°C° 0.5 mm 15 mps 738 mmHg 61%
    03:00 +9°C° 0.5 mm 16 mps 738 mmHg 56%
    04:00 +9°C° 0.3 mm 15 mps 739 mmHg 56%
    05:00 +8°C° 0.3 mm 14 mps 739 mmHg 56%
    06:00 +6°C° 0.3 mm 14 mps 739 mmHg 55%
    07:00 +7°C° 0.7 mm 13 mps 740 mmHg 54%
    08:00 +7°C° 0.7 mm 12 mps 741 mmHg 53%
    09:00 +6°C° 0.7 mm 11 mps 742 mmHg 52%
    10:00 +7°C° 0.5 mm 11 mps 742 mmHg 52%
    11:00 +7°C° 0.5 mm 10 mps 743 mmHg 52%
    12:00 +7°C° 0.5 mm 10 mps 743 mmHg 52%
    13:00 +7°C° 0.3 mm 10 mps 743 mmHg 52%
    14:00 +7°C° 0.3 mm 10 mps 743 mmHg 53%
    15:00 +7°C° 0.3 mm 9 mps 743 mmHg 53%
    16:00 +7°C° 0.1 mm 8 mps 744 mmHg 55%
    17:00 +7°C° 0.1 mm 8 mps 745 mmHg 58%
    18:00 +6°C° 0.1 mm 7 mps 745 mmHg 60%
    19:00 +6°C° 0.2 mm 7 mps 746 mmHg 62%
    20:00 +6°C° 0.2 mm 7 mps 746 mmHg 65%
    21:00 +6°C° 0.2 mm 7 mps 747 mmHg 67%
    22:00 +7°C° 0.3 mm 6 mps 748 mmHg 67%
    23:00 +7°C° 0.3 mm 6 mps 748 mmHg 68%

    25 January, Friday

    Time Temperature Precipitation Wind Pressure Humidity
    00:00 +7°C° 0.3 mm 6 mps 748 mmHg 68%
    01:00 +7°C° 0.2 mm 5 mps 748 mmHg 67%
    02:00 +7°C° 0.2 mm 4 mps 749 mmHg 66%
    03:00 +8°C° 0.2 mm 3 mps 749 mmHg 65%
    04:00 +8°C° 0.1 mm 3 mps 749 mmHg 65%
    05:00 +8°C° 0.1 mm 3 mps 749 mmHg 66%
    06:00 +8°C° 0.1 mm 3 mps 749 mmHg 66%
    07:00 +7°C° 0.1 mm 4 mps 749 mmHg 66%
    08:00 +8°C° 0.1 mm 4 mps 750 mmHg 66%
    09:00 +8°C° 0.1 mm 4 mps 750 mmHg 66%
    10:00 +9°C° 0.1 mm 5 mps 750 mmHg 62%
    11:00 +10°C° 0.1 mm 6 mps 751 mmHg 59%
    12:00 +10°C° 0.1 mm 6 mps 751 mmHg 56%
    13:00 +10°C° 0.1 mm 6 mps 751 mmHg 57%
    14:00 +10°C° 0.1 mm 6 mps 751 mmHg 58%
    15:00 +10°C° 0.1 mm 6 mps 750 mmHg 59%
    16:00 +9°C° 0 mm 5 mps 751 mmHg 58%
    17:00 +10°C° 0 mm 4 mps 751 mmHg 58%
    18:00 +8°C° 0 mm 4 mps 751 mmHg 58%
    19:00 +8°C° 0 mm 4 mps 752 mmHg 58%
    20:00 +8°C° 0 mm 4 mps 752 mmHg 58%
    21:00 +8°C° 0 mm 3 mps 752 mmHg 59%
    22:00 +7°C° 0 mm 4 mps 752 mmHg 59%
    23:00 +7°C° 0 mm 4 mps 752 mmHg 59%

    26 January, Saturday

    Time Temperature Precipitation Wind Pressure Humidity
    00:00 +7°C° 0 mm 4 mps 753 mmHg 59%
    01:00 +7°C° 0 mm 4 mps 752 mmHg 59%
    02:00 +7°C° 0 mm 4 mps 752 mmHg 59%
    03:00 +7°C° 0 mm 4 mps 752 mmHg 60%
    04:00 +7°C° 0 mm 4 mps 752 mmHg 60%
    05:00 +7°C° 0 mm 4 mps 752 mmHg 61%
    06:00 +7°C° 0 mm 4 mps 752 mmHg 61%
    07:00 +8°C° 0 mm 4 mps 753 mmHg 61%
    08:00 +8°C° 0 mm 4 mps 753 mmHg 60%
    09:00 +10°C° 0 mm 4 mps 753 mmHg 60%
    10:00 +12°C° 0 mm 4 mps 753 mmHg 57%
    11:00 +13°C° 0 mm 3 mps 753 mmHg 54%
    12:00 +14°C° 0 mm 3 mps 753 mmHg 51%
    13:00 +14°C° 0 mm 3 mps 752 mmHg 49%
    14:00 +16°C° 0 mm 2 mps 751 mmHg 47%
    15:00 +16°C° 0 mm 2 mps 751 mmHg 45%
    16:00 +15°C° 0 mm 2 mps 751 mmHg 50%
    17:00 +14°C° 0 mm 1 mps 750 mmHg 54%
    18:00 +13°C° 0 mm 1 mps 750 mmHg 58%
    19:00 +12°C° 0 mm 1 mps 750 mmHg 58%
    20:00 +12°C° 0 mm 2 mps 750 mmHg 57%
    21:00 +11°C° 0 mm 3 mps 750 mmHg 56%
    22:00 +11°C° 0 mm 3 mps 750 mmHg 55%
    23:00 +11°C° 0 mm 3 mps 749 mmHg 54%

    27 January, Sunday

    Time Temperature Precipitation Wind Pressure Humidity
    00:00 +11°C° 0 mm 4 mps 749 mmHg 53%
    01:00 +11°C° 0 mm 4 mps 749 mmHg 53%
    02:00 +11°C° 0 mm 4 mps 748 mmHg 53%
    03:00 +11°C° 0 mm 4 mps 748 mmHg 52%
    04:00 +11°C° 0 mm 4 mps 748 mmHg 52%
    05:00 +9°C° 0 mm 5 mps 748 mmHg 53%
    06:00 +9°C° 0 mm 5 mps 748 mmHg 53%
    07:00 +10°C° 0.1 mm 5 mps 748 mmHg 55%
    08:00 +12°C° 0.1 mm 4 mps 748 mmHg 58%
    09:00 +13°C° 0.1 mm 4 mps 749 mmHg 60%
    10:00 +13°C° 0.1 mm 4 mps 748 mmHg 62%
    11:00 +13°C° 0.1 mm 3 mps 748 mmHg 64%
    12:00 +13°C° 0.1 mm 3 mps 748 mmHg 65%
    13:00 +13°C° 0.1 mm 3 mps 748 mmHg 66%
    14:00 +12°C° 0.1 mm 3 mps 747 mmHg 66%
    15:00 +12°C° 0.1 mm 3 mps 747 mmHg 67%
    16:00 +12°C° 0.1 mm 3 mps 747 mmHg 68%
    17:00 +11°C° 0.1 mm 4 mps 747 mmHg 70%
    18:00 +11°C° 0.1 mm 4 mps 748 mmHg 71%
    19:00 +10°C° 0.2 mm 5 mps 748 mmHg 71%
    20:00 +10°C° 0.2 mm 5 mps 748 mmHg 70%
    21:00 +9°C° 0.2 mm 6 mps 749 mmHg 70%
    22:00 +9°C° 0.3 mm 6 mps 748 mmHg 69%
    23:00 +9°C° 0.3 mm 6 mps 748 mmHg 69%
    Show more